Theta_e
313 314 313 313 312 312 314 316 317 319 322 325 322 321 321 321 320 316 309 316 320 329 327 320 316 314 312 306 307 304 294 291 294 295 296 302 300 304 306 302 303 304 314 320 327
314 314 313 312 313 311 311 314 315 317 320 322 324 321 321 320 314 309 320 328 330 331 321 315 311 310 303 303 303 299 293 295 300 301 299 301 302 304 302 301 300 307 315 324 326
315 314 314 314 313 312 312 313 314 315 317 320 323 322 321 318 307 306 324 329 331 329 320 319 313 309 302 302 301 299 295 301 303 305 304 303 303 305 301 299 301 303 312 318 321
314 314 313 312 312 312 311 311 313 314 315 319 322 322 320 314 292 313 328 329 331 325 318 314 310 304 300 298 302 296 301 303 304 306 303 301 304 302 302 302 306 306 306 309 313
313 312 312 312 311 311 310 310 311 313 315 318 320 321 315 303 303 316 327 329 325 321 315 311 306 303 298 300 300 296 298 302 304 304 302 303 302 301 302 306 307 305 307 306 307
312 311 311 311 310 310 310 310 311 312 314 316 317 320 308 295 312 319 322 323 321 319 315 313 309 307 300 299 299 300 301 300 302 302 302 301 300 300 301 305 305 305 304 304 306
310 310 310 310 310 309 310 310 310 312 312 313 315 315 304 299 311 317 321 319 321 319 314 316 314 305 303 300 302 301 297 298 300 300 300 301 298 296 302 304 302 302 302 304 304
309 309 309 309 309 309 309 309 309 310 311 312 313 312 299 311 312 311 312 311 316 319 318 319 316 306 303 303 300 297 295 290 297 299 300 300 292 298 302 299 300 301 301 302 305
308 308 308 308 308 308 308 309 310 310 311 311 306 307 296 316 307 309 309 308 309 316 317 318 314 305 301 295 291 292 285 289 293 300 299 297 292 300 304 300 299 299 300 301 303
308 307 307 308 307 307 308 309 308 308 307 308 306 299 302 301 308 309 308 309 310 312 310 308 306 299 297 293 284 288 287 288 290 295 295 294 293 298 299 298 298 298 299 300 301
307 307 307 307 307 308 306 301 291 294 299 295 298 299 301 307 310 307 308 306 311 306 299 303 297 294 297 296 294 293 292 290 291 295 291 290 289 292 295 294 294 297 297 298 300
307 306 307 307 308 308 304 294 294 296 290 298 298 301 305 306 300 304 308 303 303 297 300 296 293 299 300 299 297 295 289 288 290 293 291 289 289 293 294 295 296 297 298 299 299
306 307 307 307 308 304 297 297 303 300 288 292 296 298 301 304 299 300 305 303 298 295 295 293 294 300 298 296 294 291 286 286 286 290 289 287 287 288 291 293 295 297 298 299 299
306 307 307 308 302 300 295 304 303 300 283 288 294 301 303 303 296 306 309 302 298 293 294 292 295 297 295 293 291 285 291 290 288 285 279 286 277 283 288 289 291 291 291 294 296
307 308 308 308 300 297 300 304 301 297 273 291 296 307 303 297 299 300 308 302 295 295 294 290 292 291 289 292 293 288 292 289 288 283 280 280 277 281 285 287 288 290 291 292 293
309 309 309 305 302 303 303 300 297 278 274 286 295 295 294 296 297 301 301 303 302 296 294 291 296 294 291 293 293 293 288 286 285 281 271 279 279 278 282 285 287 288 291 292 294
309 308 305 306 298 305 303 293 276 273 285 285 291 294 293 292 294 296 294 293 290 286 286 291 290 293 294 289 292 289 282 272 270 273 273 281 278 280 286 290 289 291 292 292 294
307 306 306 306 305 304 297 287 273 281 281 291 292 292 289 292 293 293 292 288 292 288 283 281 281 289 291 289 286 286 283 273 270 271 274 282 278 282 289 291 291 291 291 292 292
305 299 301 305 305 302 292 277 277 283 287 291 291 287 288 291 292 291 290 289 290 288 282 279 281 291 292 292 291 285 279 285 277 276 270 276 280 284 288 288 289 290 294 295 295
295 294 299 306 305 298 288 283 285 290 294 292 284 287 283 287 287 288 288 292 289 291 290 286 279 289 292 294 293 288 289 277 272 264 269 274 275 279 283 286 288 289 290 292 295
293 290 297 304 304 293 284 284 290 296 296 291 287 285 286 286 287 287 286 290 291 290 291 289 283 283 290 285 284 285 283 282 280 275 270 271 276 284 284 287 288 290 291 293 295
290 281 298 302 287 286 285 289 294 294 296 293 290 289 286 289 286 286 285 287 293 292 287 290 284 274 283 287 289 287 284 282 272 271 274 273 278 289 288 288 290 294 295 297 300
288 288 298 297 286 288 292 293 296 294 293 292 289 290 290 287 284 286 288 292 294 293 289 289 280 272 279 283 286 283 285 285 283 281 270 273 277 289 289 292 294 297 300 301 300
289 281 288 295 291 287 288 289 290 295 294 292 290 291 289 287 288 287 287 292 296 295 299 294 283 277 274 278 281 275 283 285 282 275 276 278 282 287 290 294 297 299 301 298 299
289 289 290 282 287 289 290 290 289 290 294 294 291 291 291 287 288 287 290 289 293 297 294 289 276 276 281 284 283 282 283 284 281 283 277 283 284 288 293 295 298 300 299 298 298
288 289 292 288 290 287 289 288 290 291 292 291 290 294 293 290 288 286 288 287 287 291 287 288 278 280 279 284 284 280 284 285 285 285 285 286 286 293 297 300 295 295 295 295 298
297 296 293 290 288 286 287 289 291 292 293 295 293 294 293 294 294 293 292 292 290 288 286 286 281 280 276 282 282 280 285 286 287 288 288 286 293 298 297 297 292 292 291 288 290
Wind_Speed
18 18 19 16 17 17 16 19 20 21 21 15 13 11 10 8 7 6 15 10 11 11 6 3 4 5 3 2 3 4 3 5 6 8 5 3 4 5 4 3 1 1 8 6 10
19 19 19 21 16 19 18 17 19 20 21 21 15 11 8 6 4 14 11 16 17 19 3 4 5 6 3 5 3 5 5 8 5 5 3 5 1 5 7 3 2 3 4 6 9
22 20 20 21 16 16 19 17 17 19 21 23 16 11 7 3 4 10 21 22 19 17 11 5 1 5 4 3 5 4 6 8 5 6 1 4 7 3 2 5 3 3 5 5 4
21 21 21 18 19 19 15 18 17 19 19 20 21 12 8 3 8 2 4 26 19 12 9 6 4 4 6 6 5 3 6 6 4 6 3 4 4 2 4 6 3 1 2 5 6
22 19 20 20 20 19 17 18 18 18 20 17 18 12 7 4 10 7 6 21 15 9 9 7 6 5 6 7 3 3 3 5 6 8 4 6 6 6 7 10 8 4 4 6 7
22 21 18 21 18 18 19 17 18 16 16 14 16 12 5 8 6 7 2 16 11 8 7 7 7 7 4 4 8 3 8 5 4 4 3 5 6 5 4 6 11 7 6 8 7
22 19 19 19 18 16 18 17 16 15 15 15 17 9 8 15 5 7 6 7 8 10 7 6 5 4 5 2 6 2 5 3 5 3 4 2 15 9 9 10 10 12 11 7 9
20 19 17 16 15 17 16 14 15 16 14 18 17 8 6 8 11 3 4 4 6 6 9 6 4 3 3 1 2 5 4 2 4 3 6 8 19 3 9 7 11 11 10 11 10
21 19 18 16 16 16 14 18 18 18 17 15 5 5 4 5 9 9 2 5 5 4 4 7 5 2 3 5 3 1 2 4 7 7 6 9 2 11 16 9 9 10 11 10 12
19 18 18 18 17 12 15 16 21 15 8 3 4 4 6 7 7 7 4 3 4 10 6 4 2 4 2 4 6 6 4 3 6 3 1 7 8 11 7 5 10 10 11 12 11
20 20 19 17 13 13 11 5 5 2 5 6 3 5 9 7 8 10 5 5 6 4 5 4 4 6 12 7 4 2 2 2 4 3 5 7 6 11 12 7 10 14 13 14 15
20 19 19 17 16 18 4 2 4 3 3 9 4 17 5 7 10 12 7 7 5 4 7 4 3 7 5 1 8 2 1 5 7 2 3 7 16 16 14 16 16 19 20 17 14
19 19 18 18 21 5 3 7 5 4 2 1 11 9 8 8 6 13 12 5 6 6 4 6 4 8 10 9 8 4 4 2 4 6 1 8 12 8 7 8 9 18 19 13 17
20 20 20 20 11 3 7 4 6 2 2 4 13 7 4 8 6 4 5 5 3 7 10 5 3 11 7 3 3 4 3 4 4 5 4 5 9 7 8 11 8 8 6 11 13
23 22 22 15 5 3 2 10 6 2 5 7 8 7 3 2 16 5 3 4 6 7 5 3 6 8 6 4 5 4 5 5 2 3 4 3 2 11 4 8 8 7 8 8 11
27 24 20 5 2 1 5 4 1 5 1 3 6 10 7 6 3 7 1 3 6 7 6 3 3 3 5 4 5 7 5 7 5 3 3 5 5 8 4 4 2 3 7 9 9
20 12 4 2 2 8 3 3 5 1 2 4 10 12 15 5 7 4 4 8 4 6 4 2 3 2 5 7 4 6 6 4 6 2 8 1 3 11 10 11 4 8 13 9 8
14 11 9 6 7 7 2 1 6 4 3 4 12 14 8 8 7 9 6 4 3 5 5 5 2 5 2 5 6 3 6 6 5 3 5 2 7 8 8 9 6 5 5 7 9
11 5 5 5 3 2 3 3 1 4 3 10 16 10 6 5 6 4 1 4 3 2 6 5 0 1 4 4 7 3 2 3 3 2 3 5 8 10 5 3 6 8 9 9 10
2 2 4 4 4 2 2 3 3 5 14 7 5 2 4 4 6 3 5 3 3 5 2 5 5 3 2 4 3 5 6 4 3 1 5 6 6 7 4 4 5 7 8 7 7
3 4 3 5 2 2 2 4 3 5 3 5 3 5 6 5 7 4 8 2 6 4 2 2 5 3 3 4 6 3 3 2 4 5 4 5 7 6 3 2 4 8 8 7 9
2 4 1 3 3 2 3 2 1 7 6 2 6 7 4 5 4 4 9 4 7 5 5 1 5 3 7 2 4 4 5 5 5 4 2 3 10 7 6 1 6 19 16 15 17
2 2 2 1 4 4 3 2 6 3 3 2 4 3 5 6 5 4 4 3 9 7 8 3 2 3 2 5 3 4 5 5 3 2 7 2 9 1 8 20 18 18 21 17 12
2 4 5 2 0 3 5 6 5 6 7 5 5 9 4 3 3 4 2 5 3 4 9 7 3 5 6 4 3 2 4 8 8 4 4 11 17 22 19 22 21 21 16 7 5
4 2 2 4 4 3 3 4 5 7 7 5 4 5 4 3 5 4 3 3 6 4 3 5 3 3 4 7 3 6 6 8 13 17 7 14 17 24 22 23 17 14 9 8 7
3 3 3 3 4 2 4 5 6 5 6 4 5 1 2 4 3 5 6 3 4 1 3 2 1 3 5 4 8 7 11 13 14 14 17 20 24 21 18 15 10 11 11 11 10
3 2 2 6 4 2 2 1 2 2 5 5 3 4 9 4 4 3 3 6 7 8 3 5 5 3 5 3 4 5 10 11 6 7 8 8 10 12 14 8 5 9 10 12 14
Wind_Direction
322 323 324 326 325 318 320 317 314 311 315 287 231 234 245 256 270 248 234 221 199 223 134 134 185 202 106 221 195 134 120 216 224 177 225 273 12 297 233 251 3 230 157 192 145
313 314 316 312 319 316 308 315 312 309 310 315 236 219 230 254 260 253 232 216 211 211 224 204 187 166 176 190 209 154 171 219 206 219 274 299 328 327 349 257 27 17 40 105 133
310 313 313 313 310 315 317 308 309 307 306 309 301 207 194 159 258 243 213 220 209 214 215 196 115 162 187 160 202 190 198 221 263 273 290 332 322 299 305 272 43 286 166 151 151
315 310 312 309 305 312 302 302 304 308 296 314 318 190 158 165 226 210 204 198 207 162 166 166 145 161 180 198 210 196 202 213 229 263 296 271 268 268 243 241 254 255 324 304 248
320 312 307 313 308 306 303 300 295 298 293 285 295 178 133 205 245 275 256 183 189 149 175 173 153 164 175 180 242 221 258 235 245 271 232 271 242 239 224 271 291 159 226 256 275
322 318 315 301 306 307 305 305 293 294 293 312 304 212 148 225 239 264 241 168 179 156 171 157 182 200 205 183 176 204 209 253 263 239 235 246 248 201 241 236 291 297 220 224 249
323 321 312 305 311 307 306 301 296 289 295 301 291 271 189 214 293 192 159 165 153 175 167 184 204 191 176 324 198 205 164 287 233 223 248 7 273 221 226 250 248 281 286 251 227
324 319 315 310 309 311 313 307 292 289 288 295 299 272 210 209 257 268 163 136 170 185 201 178 183 160 170 260 113 133 72 207 262 251 240 162 253 240 239 249 269 275 273 279 243
331 324 324 319 313 319 322 305 305 289 284 283 308 208 212 157 204 235 180 157 154 119 157 96 95 144 104 134 69 47 171 208 299 219 229 182 276 248 242 221 243 261 262 266 273
329 324 322 315 315 318 315 312 297 289 273 189 259 124 265 195 161 176 194 171 148 116 97 98 105 133 140 145 191 199 190 209 226 282 317 262 257 269 277 237 244 249 257 257 248
329 327 322 325 323 311 320 343 356 167 231 185 181 237 160 151 121 176 164 139 111 145 159 145 163 171 181 197 115 171 189 212 255 282 338 274 268 268 272 263 255 259 243 252 248
329 326 322 321 316 310 299 257 241 165 283 220 275 277 191 152 146 178 147 159 159 139 117 140 188 152 180 197 245 281 313 298 291 266 316 299 287 273 257 255 238 246 255 250 255
333 328 322 320 323 340 168 245 197 160 48 304 223 250 155 132 114 161 168 142 116 123 123 125 169 157 174 197 199 188 162 230 260 322 68 320 273 258 282 266 248 244 246 253 251
327 322 319 319 311 355 290 177 172 155 78 201 189 199 162 132 73 106 181 116 142 147 138 145 237 156 140 189 131 155 105 105 45 41 265 41 291 299 280 292 279 282 256 250 249
317 310 309 310 292 256 279 173 101 78 147 166 155 138 89 93 132 207 334 66 140 133 106 176 144 134 136 173 149 163 109 89 64 34 10 272 247 275 287 290 294 288 228 270 251
312 307 307 307 149 212 144 97 59 37 211 237 112 142 99 112 61 124 23 53 101 80 51 93 130 102 143 91 111 150 74 46 49 65 340 242 175 284 267 249 267 335 283 275 288
349 349 40 152 20 134 99 34 58 178 225 123 135 131 122 104 120 104 136 134 132 130 123 18 24 47 101 86 28 84 67 358 356 285 232 201 185 247 270 275 294 319 293 299 260
360 22 15 61 99 116 19 20 68 260 263 229 125 113 103 123 112 128 130 123 45 83 113 129 226 185 192 155 169 164 135 152 233 234 285 317 241 252 229 275 301 326 316 342 331
352 3 34 52 88 35 308 33 314 305 299 125 106 99 87 81 113 114 127 143 146 152 123 129 134 157 147 135 128 207 125 182 100 356 26 255 292 296 333 88 28 14 25 11 2
31 22 31 344 318 9 343 15 317 224 122 88 76 93 110 111 109 107 150 190 186 178 150 187 101 9 103 100 83 133 152 67 3 280 274 278 275 243 307 10 21 16 0 342 346
41 60 277 352 16 17 332 351 350 103 12 33 142 101 108 115 120 112 183 288 185 169 184 132 101 296 110 198 174 140 169 151 124 151 202 307 269 222 207 63 337 319 299 294 300
23 48 346 7 56 19 358 355 182 240 268 287 78 97 105 94 124 135 192 250 181 155 148 36 108 154 209 258 183 150 174 151 125 266 241 186 268 287 282 360 269 320 311 306 306
54 280 74 50 43 27 322 190 219 225 343 86 104 112 123 126 143 119 130 296 182 153 156 170 45 61 76 10 22 188 189 164 114 121 208 178 260 238 315 320 311 321 316 313 322
33 17 324 23 312 358 2 351 355 15 31 58 91 120 98 122 74 122 114 21 108 141 142 90 136 161 183 208 137 181 199 197 181 183 213 232 281 291 302 312 313 309 305 326 346
27 15 14 328 348 12 45 345 13 11 11 43 96 120 148 131 117 117 101 80 33 86 81 104 167 111 257 253 194 217 216 198 211 229 238 273 289 292 296 300 311 323 303 296 326
35 0 323 267 274 312 5 355 24 358 28 31 81 15 106 70 266 160 126 134 177 45 101 41 169 37 296 266 211 239 240 229 238 247 257 268 275 279 285 318 2 346 341 333 313
339 319 298 294 342 30 282 307 9 29 29 49 183 104 68 46 29 24 135 159 158 144 130 134 132 98 271 321 331 280 226 207 200 204 206 236 259 292 306 337 340 332 331 320 309